User: anonymous   Login
Location: Albany
(35.0000°S, 118.0000°E)
Time: 20:38:49
(UTC-05:00)
Language:

ADEOS Rocket - Orbit

View from above orbital plane
View from above orbital plane
View from above satellite
View from above satellite

Ground track
Ground track

The orbit data is extracted from the following two-line orbital elements,

1 24279U 96046C   17049.90968642 -.00000001 +00000-0 +45554-4 0  9993
2 24279 098.7385 008.5644 0299244 230.1033 162.2545 13.47075053008047
Epoch (UTC): 18 February 2017 21:49:56
Eccentricity: 0.0299244
inclination: 98.7385°
perigee height: 860 km
apogee height: 1306 km
right ascension of ascending node: 8.5644°
argument of perigee: 230.1033°
revolutions per day: 13.47075053
mean anomaly at epoch: 162.2545°
orbit number at epoch: 804

The dashed part of the orbit path shows where the satellite is in the earth's shadow,  

DLR